Temperature
19 19 19 19 19 19 19 19 19 19 19 19 19 18 18 18 18 18 18 18 18 18 18 18 18 18 18 18 18 18 18 18 18 18 18 18 18 18 18 18 18 18 18
19 19 19 19 19 19 19 19 19 19 19 19 19 18 18 18 18 18 18 19 18 18 18 18 18 18 18 18 18 18 18 18 18 18 18 18 18 18 18 18 18 18 18
19 18 18 19 19 19 19 19 19 19 19 19 18 18 18 18 18 18 18 18 18 18 18 18 18 18 18 18 18 18 18 18 18 18 18 18 18 18 18 18 18 17 17
19 18 18 19 19 19 19 19 19 19 19 19 19 19 18 18 18 18 18 18 18 18 18 18 18 18 18 18 18 18 18 18 18 18 18 18 18 18 18 18 18 17 17
19 19 18 19 19 19 19 19 19 19 19 19 19 18 18 18 18 18 18 18 18 18 18 18 18 18 18 18 18 18 18 18 18 18 18 18 18 18 18 18 18 17 17
19 19 19 19 19 19 19 19 19 19 19 19 19 18 18 18 18 18 18 18 18 18 18 18 18 18 18 18 18 18 18 18 18 18 18 18 18 18 18 18 18 17 17
19 19 19 19 19 19 19 19 19 19 19 19 19 19 19 19 19 19 19 18 18 18 18 18 18 18 18 18 18 18 18 18 18 18 18 18 18 18 18 17 17 17 17
19 19 19 19 19 19 19 19 19 19 19 19 19 19 19 18 19 19 18 18 18 18 18 18 18 18 18 18 18 18 18 17 17 17 18 18 18 17 17 17 17 17 17
19 19 19 19 18 18 18 18 18 18 18 19 19 18 18 18 18 18 18 18 18 18 18 18 18 18 18 18 18 17 17 17 17 17 18 17 17 17 17 17 17 17 17
19 19 19 19 18 18 18 18 18 18 18 18 18 18 18 18 18 18 18 18 18 18 18 18 18 18 18 18 18 18 17 17 17 17 17 17 17 17 17 17 17 17 17
19 19 19 19 19 18 18 18 18 18 18 18 18 18 18 18 18 18 18 18 18 18 18 18 18 18 18 17 17 17 18 18 17 17 17 17 17 17 17 17 17 17 17
19 19 19 19 19 19 18 18 18 18 18 18 18 18 18 18 18 18 18 18 18 18 18 18 18 18 18 17 17 18 18 18 17 17 17 17 17 17 17 17 17 17 17
19 19 19 19 19 19 19 18 18 18 18 18 18 18 18 18 18 18 18 18 18 18 18 18 18 18 18 18 18 18 18 18 18 17 17 17 17 17 17 17 17 17 17
19 19 19 19 19 19 19 18 18 18 18 18 18 18 18 18 18 18 18 18 18 18 18 18 18 18 17 17 18 18 18 18 18 17 17 17 17 17 17 17 17 17 17
19 19 19 19 19 19 19 19 18 18 18 18 18 18 18 18 18 18 18 18 18 18 18 18 18 18 18 18 17 17 17 18 18 17 17 17 17 17 17 17 17 17 17
20 19 19 19 19 19 19 19 19 18 18 18 18 18 18 18 18 18 18 18 18 18 18 18 18 18 17 17 17 17 17 17 17 17 17 17 17 17 17 17 17 17 17
20 20 19 19 19 19 19 19 19 18 18 18 18 18 18 18 18 18 18 18 18 18 18 18 18 18 17 17 17 17 17 17 17 17 17 17 17 17 17 17 17 17 17
20 20 19 19 19 19 19 19 19 19 19 18 18 18 18 18 18 18 18 18 18 18 18 17 17 17 17 17 17 17 17 17 17 17 17 17 17 17 17 17 17 17 16
20 20 20 19 19 19 19 19 19 19 19 19 18 18 18 18 18 18 18 18 18 18 18 18 17 17 17 17 17 17 17 17 17 17 17 17 17 17 17 17 17 16 16
20 20 20 19 19 19 19 19 19 19 19 18 18 18 18 18 18 18 18 18 18 18 18 18 18 17 17 17 17 17 17 17 17 17 17 17 17 17 17 17 16 16 16
20 20 20 20 19 19 19 19 19 19 19 18 18 18 18 18 18 18 18 18 18 18 18 18 18 17 17 17 17 17 17 17 17 17 17 17 17 16 16 16 16 16 16
20 20 20 20 20 19 19 19 19 19 19 18 18 18 18 18 18 18 18 18 18 18 18 18 18 17 17 17 17 17 17 17 17 17 17 17 17 16 16 16 16 16 16
20 20 20 20 20 19 19 19 19 19 19 18 18 18 18 18 18 18 18 18 18 18 18 18 18 18 18 17 17 17 17 17 17 17 17 17 16 16 16 16 16 16 16
21 20 20 20 20 20 19 19 19 19 19 19 19 18 18 18 18 18 18 18 18 18 18 18 18 18 17 17 17 17 17 17 17 16 16 16 16 16 16 16 16 16 16
21 21 21 20 20 20 20 19 19 19 19 19 19 19 18 18 18 18 18 18 18 18 18 18 18 18 17 17 17 17 17 17 17 16 16 16 16 16 16 16 16 16 16
21 21 21 20 20 20 20 19 19 19 19 19 19 19 18 18 18 18 18 18 18 18 18 18 17 17 17 17 17 17 17 17 17 16 16 16 16 16 16 16 16 16 16
Wind_Speed
1 1 3 5 6 7 8 10 10 11 12 12 14 14 16 17 17 18 17 18 18 18 18 17 17 17 17 17 17 17 16 16 15 15 15 15 15 14 14 15 14 12 14
1 2 4 5 6 8 9 10 10 11 11 12 13 14 15 16 17 17 17 17 17 17 17 17 17 17 17 17 16 16 15 15 15 14 14 14 14 14 14 14 13 12 13
2 3 4 6 7 8 9 10 10 11 11 12 13 14 15 15 16 16 16 16 16 16 16 16 16 16 16 16 15 15 14 14 14 13 12 10 11 12 13 13 13 13 13
3 3 5 7 8 9 9 10 10 11 11 12 13 14 14 15 15 15 15 16 16 16 16 16 16 15 15 15 14 14 13 13 12 11 9 9 9 11 12 12 12 12 12
3 3 4 7 8 9 10 10 11 11 11 12 13 13 14 14 14 14 14 15 15 15 15 15 15 15 14 14 13 13 12 12 11 9 8 7 8 10 11 11 12 11 11
3 3 4 7 8 10 11 11 11 11 11 11 12 13 13 13 13 13 13 13 14 14 15 15 14 14 13 12 12 11 11 11 9 8 7 7 8 10 11 11 11 11 11
3 3 4 7 8 9 10 10 10 10 10 11 11 12 12 12 12 12 12 13 13 13 14 14 13 12 11 11 10 10 10 9 8 8 7 6 7 9 9 10 10 10 10
3 3 4 6 7 8 9 9 9 10 10 10 11 11 11 11 10 11 11 11 12 12 13 13 12 11 11 10 9 9 9 8 7 7 6 6 7 8 7 8 8 9 10
4 4 4 4 5 6 7 8 9 9 9 10 10 10 10 9 9 9 9 9 10 11 11 11 11 10 9 9 8 8 8 7 6 6 6 5 6 6 7 7 7 7 8
3 3 3 4 5 5 5 7 8 9 9 9 9 9 9 8 8 7 7 8 9 10 10 10 10 9 8 8 7 7 7 6 6 6 5 5 7 7 6 7 7 6 7
3 2 2 2 3 4 4 5 6 7 7 7 7 8 7 6 5 5 6 8 8 8 8 8 8 8 7 6 6 6 5 4 5 4 5 6 7 6 7 7 7 7 7
2 1 2 2 2 2 3 4 4 5 5 5 6 6 6 5 4 4 6 7 7 6 6 6 6 5 5 4 4 5 4 4 4 3 4 5 6 6 6 7 7 7 6
3 2 2 2 2 2 2 3 3 3 3 4 4 4 4 4 3 3 3 3 4 4 4 4 4 3 3 3 2 3 3 3 3 3 4 5 5 6 6 7 7 8 8
3 2 2 2 2 2 3 2 2 2 2 1 2 2 3 2 2 2 2 2 2 2 3 3 2 2 3 3 3 3 3 2 2 2 3 4 5 6 6 7 7 8 8
4 3 2 3 3 2 2 1 2 2 1 1 1 2 3 2 1 1 1 2 2 2 2 2 2 2 2 2 2 2 2 2 2 2 3 4 5 5 6 6 7 8 8
5 4 3 3 3 3 3 2 1 2 2 2 1 1 2 2 2 1 1 1 1 1 2 2 2 2 2 2 1 2 1 1 1 2 2 3 4 5 6 6 6 7 7
6 4 4 4 3 3 3 2 2 2 2 1 1 1 2 2 3 2 1 1 1 2 2 2 3 2 2 1 1 1 1 1 1 1 2 2 3 3 4 4 4 5 5
5 5 4 4 4 3 3 2 1 2 2 1 1 1 1 2 3 3 2 1 1 2 2 2 2 2 1 1 1 0 0 1 1 1 1 1 1 2 2 2 3 4 4
6 6 5 4 4 4 3 2 2 2 1 1 1 1 1 2 3 3 2 1 2 2 2 2 2 2 1 1 1 0 0 0 1 1 1 1 1 2 2 2 3 3 4
6 6 5 4 4 4 3 2 2 1 0 0 1 1 2 2 3 3 2 2 3 2 1 1 2 2 1 1 1 1 1 0 0 0 0 0 1 1 2 2 2 3 3
5 5 5 5 4 4 2 2 2 1 1 0 1 1 2 2 3 3 3 2 3 2 2 2 2 2 1 2 2 1 2 1 1 0 0 0 1 1 1 1 2 2 2
7 6 6 5 5 5 4 3 2 2 1 1 0 0 1 2 3 3 3 3 2 2 2 2 3 2 1 1 2 1 1 2 2 1 0 1 1 1 1 2 1 2 2
8 8 7 6 5 5 4 3 2 2 2 1 1 0 0 1 2 3 3 3 3 3 3 3 3 3 2 1 1 2 2 2 1 1 1 0 1 1 1 1 1 1 1
9 8 7 6 6 5 5 5 4 3 2 2 2 1 0 1 2 3 3 4 3 3 3 3 3 3 3 2 1 1 1 2 1 1 2 1 1 1 1 1 1 1 2
8 8 7 6 6 5 6 6 5 4 3 2 1 1 1 0 1 2 3 3 3 3 3 2 2 3 3 3 2 2 1 1 1 2 1 2 1 1 1 1 2 2 2
8 7 7 7 7 6 7 7 6 6 5 3 2 2 1 0 0 0 2 2 2 2 3 3 3 3 3 3 3 2 2 2 2 2 2 1 1 2 1 1 2 3 3
Wind_Direction
354 98 108 99 99 102 103 105 108 109 110 112 115 120 122 123 124 125 125 126 127 128 127 126 126 125 127 126 124 123 123 123 126 129 130 129 129 129 128 126 125 125 127
117 104 115 104 104 106 108 108 108 110 112 114 117 120 122 123 123 125 126 127 128 129 128 128 126 125 125 125 125 124 124 126 128 130 129 129 131 132 132 131 132 131 132
89 99 114 110 109 109 110 111 109 109 110 113 118 120 122 123 124 125 127 127 128 128 129 130 127 127 127 126 127 126 126 126 126 125 124 124 131 136 137 136 136 137 138
98 89 104 108 107 110 113 112 109 108 109 110 116 120 122 122 122 124 128 129 129 130 131 129 128 127 128 128 127 126 124 123 123 122 120 128 135 140 142 142 142 142 143
79 83 101 101 101 106 112 111 108 108 108 110 115 121 122 123 123 126 128 131 132 133 134 131 129 128 128 129 128 126 125 123 121 117 115 122 132 141 142 144 147 146 145
72 85 101 94 98 105 109 107 106 106 109 113 117 121 123 123 126 126 127 131 134 133 133 132 131 130 131 132 129 128 127 123 119 116 119 127 137 145 146 148 151 152 150
80 80 94 96 98 104 105 103 103 108 111 115 119 122 125 128 129 128 130 132 135 134 133 134 134 132 131 133 133 131 130 132 127 127 131 133 142 146 151 153 155 159 158
89 73 83 98 101 101 106 106 105 108 113 115 116 119 123 128 130 130 132 135 138 140 138 137 136 136 134 135 134 133 134 138 135 136 135 142 150 154 156 155 159 162 164
80 62 55 76 93 98 102 105 107 106 108 112 113 117 122 125 127 130 134 136 138 141 140 140 139 140 137 135 134 137 144 143 139 142 148 152 151 156 159 160 160 166 171
78 62 50 58 72 78 89 103 106 107 108 110 112 111 112 114 117 124 130 138 141 139 140 143 144 142 140 138 137 139 144 146 144 150 157 168 167 164 164 165 166 168 174
96 65 61 60 73 82 86 98 101 103 101 102 102 100 95 93 95 104 117 130 138 138 141 145 147 145 142 137 135 133 131 142 147 154 167 177 179 180 181 182 182 179 178
140 112 79 81 86 98 100 86 80 82 81 83 85 87 88 88 86 89 98 118 126 131 136 137 138 140 129 124 127 127 126 135 148 165 181 188 194 194 194 195 194 190 186
158 142 115 115 109 104 97 94 87 91 88 84 89 95 99 93 85 78 83 91 98 103 98 102 95 106 114 121 125 129 133 138 151 173 191 202 211 212 212 209 205 202 199
152 163 149 135 120 114 116 108 110 111 107 105 112 126 122 109 86 78 78 80 82 95 93 85 86 103 114 125 138 134 139 150 160 177 198 210 219 223 225 222 218 213 208
161 175 171 151 147 140 128 142 129 130 134 148 153 161 152 140 123 108 91 87 89 103 99 92 92 105 107 101 122 140 151 152 165 185 226 229 234 239 240 232 224 220 219
171 175 163 156 158 145 144 152 156 160 169 161 168 178 170 167 162 148 131 116 127 132 133 119 116 116 117 112 115 133 154 170 187 204 239 248 249 249 247 234 230 224 218
174 167 163 163 147 145 153 170 167 170 163 170 204 203 189 184 177 168 151 147 157 145 126 112 101 105 123 121 107 123 133 169 180 218 243 251 255 250 246 229 227 222 219
168 165 172 170 154 159 164 166 158 163 160 177 187 207 224 186 173 160 158 165 151 128 128 130 124 116 110 110 85 30 94 198 196 195 213 238 247 255 255 249 240 238 235
175 170 163 156 157 167 159 146 135 137 144 177 176 187 207 176 165 161 168 167 144 129 137 160 131 138 141 140 140 40 352 272 240 202 184 227 240 250 263 274 268 264 254
177 171 161 159 160 149 129 110 98 89 69 85 182 196 192 180 162 156 151 134 129 122 119 125 127 116 130 139 111 55 36 5 71 143 218 238 251 250 251 272 277 277 275
172 173 171 167 168 151 144 146 146 177 207 249 242 214 191 181 160 145 139 131 133 136 148 149 136 116 105 119 99 36 16 24 45 268 249 276 296 292 287 266 262 260 267
182 184 182 182 176 174 174 162 157 155 163 195 295 15 186 177 164 153 145 146 144 136 135 143 137 137 142 131 132 113 2 346 8 8 311 237 282 307 311 294 290 279 273
190 192 193 190 185 181 167 130 105 81 60 50 10 338 294 170 158 154 157 156 155 161 170 171 164 162 172 166 131 145 157 232 308 352 346 320 320 324 305 303 312 296 277
198 191 189 188 186 179 163 156 159 165 183 210 206 200 79 141 162 167 164 164 165 167 173 185 171 169 159 181 188 180 176 167 162 322 341 1 356 305 294 285 286 293 276
192 186 188 186 188 181 171 172 168 179 196 193 156 137 139 56 164 169 169 171 172 175 178 175 165 161 166 178 182 167 152 135 152 172 271 321 345 303 279 266 265 267 267
186 183 184 185 193 188 180 179 181 187 186 175 177 175 190 210 279 198 169 171 177 179 180 182 174 168 174 173 173 166 162 166 184 179 210 251 281 297 299 274 266 257 257
Height
1503 1502 1501 1500 1500 1500 1501 1501 1502 1502 1503 1503 1504 1505 1506 1507 1509 1511 1513 1515 1518 1520 1523 1525 1527 1529 1531 1533 1536 1538 1540 1542 1544 1545 1547 1548 1549 1551 1552 1553 1554 1556 1557
1504 1503 1503 1502 1501 1502 1502 1503 1504 1504 1505 1505 1506 1507 1508 1510 1512 1513 1516 1518 1520 1523 1525 1527 1529 1531 1533 1535 1537 1539 1541 1543 1545 1546 1548 1549 1551 1552 1553 1554 1556 1557 1558
1505 1505 1504 1503 1503 1503 1503 1504 1505 1505 1506 1506 1507 1509 1511 1513 1515 1517 1519 1521 1523 1525 1527 1529 1531 1533 1535 1537 1539 1541 1543 1545 1546 1547 1549 1550 1552 1553 1554 1555 1557 1558 1559
1507 1506 1506 1505 1505 1504 1505 1506 1506 1507 1507 1508 1509 1511 1513 1515 1517 1519 1521 1523 1525 1527 1529 1531 1533 1535 1537 1539 1541 1543 1544 1546 1547 1549 1550 1551 1553 1554 1555 1556 1557 1558 1559
1509 1508 1508 1507 1506 1505 1506 1507 1508 1508 1509 1510 1511 1513 1515 1517 1519 1522 1524 1526 1527 1529 1531 1533 1535 1537 1539 1541 1543 1544 1546 1547 1549 1550 1551 1553 1554 1555 1556 1557 1558 1559 1560
1511 1510 1510 1509 1508 1507 1507 1509 1509 1510 1510 1512 1513 1515 1517 1519 1521 1524 1526 1528 1529 1531 1533 1535 1537 1539 1541 1542 1544 1546 1547 1549 1550 1551 1552 1553 1554 1555 1556 1557 1558 1559 1560
1513 1513 1512 1512 1511 1511 1511 1512 1512 1512 1513 1514 1515 1517 1519 1522 1524 1525 1527 1529 1531 1533 1534 1536 1538 1540 1542 1544 1546 1547 1549 1550 1551 1552 1553 1554 1555 1556 1557 1558 1559 1559 1560
1515 1515 1515 1515 1515 1515 1515 1515 1515 1515 1516 1517 1518 1520 1522 1524 1526 1527 1529 1530 1532 1534 1536 1538 1540 1541 1543 1545 1547 1548 1549 1551 1552 1553 1554 1555 1556 1557 1558 1558 1559 1560 1560
1517 1517 1518 1518 1518 1519 1519 1519 1519 1519 1520 1521 1522 1523 1525 1526 1527 1528 1530 1531 1533 1535 1537 1539 1541 1543 1545 1546 1548 1549 1551 1552 1553 1554 1555 1555 1556 1557 1558 1558 1559 1560 1560
1519 1520 1520 1521 1521 1521 1522 1523 1523 1523 1524 1525 1525 1526 1527 1528 1529 1529 1530 1531 1534 1536 1539 1541 1543 1545 1546 1548 1549 1550 1552 1553 1554 1554 1555 1556 1557 1557 1558 1558 1559 1559 1559
1521 1522 1522 1523 1524 1524 1525 1526 1526 1527 1527 1528 1529 1529 1530 1531 1531 1531 1530 1531 1535 1538 1540 1542 1544 1546 1547 1549 1550 1551 1552 1553 1554 1555 1556 1557 1557 1557 1558 1558 1559 1559 1559
1523 1524 1524 1525 1526 1527 1527 1528 1529 1529 1530 1531 1531 1532 1533 1533 1534 1534 1534 1534 1537 1540 1542 1544 1546 1547 1549 1550 1551 1552 1553 1554 1555 1555 1556 1557 1557 1557 1558 1558 1559 1559 1559
1524 1525 1526 1527 1528 1529 1530 1530 1531 1532 1532 1533 1534 1534 1535 1536 1536 1537 1537 1539 1540 1542 1544 1545 1547 1548 1549 1550 1551 1552 1553 1554 1555 1556 1556 1557 1557 1557 1558 1558 1558 1559 1559
1526 1527 1528 1529 1530 1531 1532 1532 1533 1534 1535 1535 1536 1536 1537 1537 1538 1539 1540 1541 1542 1544 1545 1546 1548 1549 1550 1551 1552 1553 1553 1554 1555 1556 1556 1557 1557 1557 1557 1557 1558 1558 1559
1527 1529 1530 1531 1532 1533 1534 1534 1535 1536 1537 1537 1538 1538 1538 1539 1539 1540 1541 1542 1543 1545 1546 1548 1549 1550 1551 1552 1552 1553 1553 1554 1555 1556 1556 1557 1557 1556 1556 1556 1557 1557 1558
1528 1530 1531 1532 1533 1534 1535 1536 1537 1537 1538 1539 1539 1539 1539 1540 1540 1541 1542 1543 1545 1546 1547 1548 1549 1550 1551 1552 1552 1553 1554 1554 1555 1555 1556 1556 1556 1556 1556 1556 1556 1556 1557
1528 1530 1532 1533 1534 1535 1536 1537 1538 1538 1539 1539 1540 1540 1540 1540 1541 1542 1542 1544 1545 1547 1548 1549 1550 1550 1551 1552 1553 1553 1554 1554 1555 1555 1555 1555 1555 1555 1555 1555 1555 1555 1555
1529 1530 1532 1533 1534 1536 1537 1538 1538 1539 1540 1540 1540 1541 1541 1540 1541 1542 1543 1544 1545 1547 1548 1549 1550 1550 1551 1552 1552 1553 1553 1554 1554 1554 1555 1555 1555 1554 1554 1554 1554 1554 1554
1529 1531 1532 1534 1535 1536 1537 1538 1539 1540 1540 1541 1541 1541 1541 1541 1541 1542 1543 1544 1546 1547 1548 1549 1549 1550 1551 1552 1552 1553 1553 1553 1554 1554 1554 1554 1554 1554 1553 1553 1553 1552 1552
1529 1531 1532 1534 1535 1536 1537 1538 1539 1540 1541 1541 1542 1542 1542 1542 1542 1543 1544 1544 1546 1547 1548 1549 1549 1550 1551 1551 1552 1552 1552 1553 1553 1553 1553 1553 1553 1553 1553 1552 1552 1551 1551
1529 1530 1532 1533 1535 1536 1537 1538 1539 1540 1541 1541 1542 1542 1542 1543 1543 1543 1544 1545 1546 1547 1548 1548 1549 1550 1550 1551 1551 1552 1552 1552 1552 1552 1552 1552 1552 1552 1552 1551 1551 1551 1550
1528 1530 1531 1533 1534 1536 1537 1538 1539 1540 1540 1541 1542 1542 1542 1543 1543 1544 1544 1545 1546 1547 1547 1548 1549 1549 1549 1550 1551 1551 1551 1552 1551 1551 1551 1551 1551 1551 1551 1550 1550 1550 1549
1526 1528 1530 1532 1534 1536 1537 1538 1539 1539 1540 1540 1541 1541 1542 1543 1543 1544 1544 1545 1545 1546 1547 1547 1548 1548 1549 1549 1550 1550 1550 1550 1550 1550 1549 1550 1550 1550 1549 1549 1549 1548 1548
1525 1527 1529 1531 1533 1534 1536 1537 1538 1538 1539 1539 1540 1541 1542 1542 1543 1543 1544 1544 1544 1545 1546 1546 1546 1547 1548 1548 1548 1548 1549 1549 1549 1549 1549 1549 1548 1548 1548 1548 1548 1548 1547
1523 1525 1527 1530 1532 1533 1534 1535 1537 1537 1538 1539 1540 1540 1541 1542 1542 1543 1543 1543 1543 1544 1544 1545 1545 1546 1546 1546 1547 1547 1547 1547 1548 1548 1547 1548 1547 1547 1547 1547 1546 1546 1546
1520 1523 1525 1527 1529 1531 1532 1534 1535 1536 1537 1538 1539 1539 1540 1541 1541 1542 1542 1542 1542 1542 1543 1543 1544 1544 1544 1544 1545 1545 1545 1546 1546 1546 1546 1545 1545 1546 1545 1545 1545 1544 1544